Location: Unspecified
(0.0000°N, 0.0000°E)
Time: 02:56:02
(UTC+02:00)

Milstar 3 - Visible Passes

Search period start: 06 July 2015 00:00
Search period end: 16 July 2015 00:00
Orbit: 1095 x 5150 km, 28.2° (Epoch: 28 June)

Date Brightness Start Highest point End Pass type
(mag) Time Alt. Az. Time Alt. Az. Time Alt. Az.
06 Jul 5.5 04:49:11 10° NNW 04:59:21 37° NNE 05:18:28 10° E visible
06 Jul 5.6 07:31:40 10° WNW 07:48:39 88° SSW 08:20:23 10° ESE visible
06 Jul 5.1 22:14:50 10° WNW 22:20:42 19° NNW 22:25:20 10° NNE visible
07 Jul 5.5 03:50:40 15° N 03:56:19 24° NNE 04:08:47 10° E visible
07 Jul 5.3 06:29:55 10° NW 06:44:01 74° NNE 07:12:27 10° ESE visible
07 Jul 4.8 21:09:12 10° W 21:18:50 34° NNW 21:25:11 10° NNE visible
08 Jul 5.7 02:53:36 14° NNE 02:53:36 14° NNE 02:59:09 10° NE visible
08 Jul 5.2 05:28:43 10° NW 05:40:22 56° NNE 06:03:53 10° ESE visible
09 Jul 5.3 04:30:16 19° NNW 04:37:23 38° NNE 04:55:00 10° E visible
09 Jul 5.3 07:10:17 10° WNW 07:25:42 82° SSW 07:55:51 10° ESE visible
09 Jul 5.2 21:53:31 10° WNW 21:59:26 18° NNW 22:03:55 10° N visible
10 Jul 5.3 03:33:18 23° NNE 03:34:43 24° NNE 03:46:08 10° E visible
10 Jul 5.0 06:08:37 10° NW 06:21:26 80° NNE 06:48:00 10° ESE visible
10 Jul 5.1 20:47:01 10° W 20:57:25 31° NNW 21:03:59 10° NNE visible
11 Jul 5.9 02:36:23 11° NE 02:36:23 11° NE 02:37:16 10° ENE visible
11 Jul 4.8 05:10:04 22° NW 05:18:09 60° NNE 05:39:51 10° ESE visible
12 Jul 4.8 04:13:09 37° N 04:15:32 40° NE 04:31:41 10° E visible
12 Jul 5.1 06:49:03 10° WNW 07:03:03 76° SSW 07:31:14 10° SE visible
12 Jul 5.3 21:32:03 10° WNW 21:38:08 17° NNW 21:42:35 10° N visible
13 Jul 5.5 03:16:13 23° NE 03:16:13 23° NE 03:23:41 10° E visible
13 Jul 4.6 05:49:54 22° WNW 05:59:06 86° NNE 06:23:34 10° ESE visible
13 Jul 5.3 20:24:39 10° W 20:35:54 29° NNW 20:42:48 10° NNE visible
14 Jul 4.4 04:52:57 51° NNW 04:56:07 64° NNE 05:15:57 10° ESE visible
14 Jul 5.4 07:30:11 10° W 07:45:31 57° SSW 08:14:11 10° SE visible
15 Jul 4.9 03:55:59 40° ENE 03:55:59 40° ENE 04:08:33 10° ESE visible
15 Jul 4.8 06:29:39 17° WNW 06:40:40 69° SSW 07:06:36 10° SE visible
15 Jul 5.5 21:10:23 10° WNW 21:16:49 16° NNW 21:21:22 10° N visible
